20050108,000027,347806,30.169673,-123.835038,16.661,33.316,0.183,0.612
20050108,000058,347836,30.170835,-123.835795,16.664,33.317,0.183,0.606
20050108,000127,347866,30.171908,-123.836491,16.669,33.313,0.191,0.632
20050108,000158,347897,30.172998,-123.837230,16.670,33.316,0.183,0.626
20050108,000227,347925,30.174103,-123.837991,16.671,33.315,0.191,0.658
20050108,000258,347956,30.175255,-123.838780,16.671,33.318,0.183,0.623
20050108,000328,347986,30.176363,-123.839531,16.665,33.322,0.175,0.609
20050108,000357,348016,30.177475,-123.840258,16.662,33.320,0.183,0.612
20050108,000428,348047,30.178638,-123.841026,16.654,33.321,0.183,0.621
20050108,000458,348077,30.179758,-123.841843,16.646,33.326,0.183,0.605
20050108,000528,348107,30.180870,-123.842556,16.640,33.320,0.183,0.610
20050108,000557,348136,30.181945,-123.843288,16.633,33.317,0.191,0.621
20050108,000627,348166,30.183103,-123.844045,16.632,33.311,0.183,0.599
20050108,000658,348196,30.184208,-123.844821,16.628,33.306,0.183,0.604
20050108,000729,348227,30.185377,-123.845616,16.625,33.300,0.183,0.603
20050108,000759,348257,30.186467,-123.846355,16.624,33.295,0.191,0.614
20050108,000828,348287,30.187562,-123.847083,16.624,33.296,0.198,0.629
20050108,000859,348318,30.188638,-123.847836,16.625,33.301,0.198,0.624
20050108,000928,348346,30.189702,-123.848570,16.624,33.297,0.183,0.596
20050108,000959,348377,30.190787,-123.849285,16.624,33.298,0.191,0.617
20050108,001029,348407,30.191828,-123.850015,16.624,33.295,0.214,0.662
20050108,001059,348437,30.192917,-123.850705,16.626,33.298,0.206,0.653
20050108,001129,348468,30.194015,-123.851455,16.626,33.293,0.206,0.650
20050108,001158,348496,30.195112,-123.852195,16.626,33.298,0.198,0.635
20050108,001228,348526,30.196237,-123.852935,16.626,33.296,0.198,0.639
20050108,001258,348557,30.197375,-123.853680,16.624,33.295,0.198,0.649
20050108,001328,348587,30.198453,-123.854435,16.624,33.297,0.191,0.623
20050108,001359,348617,30.199633,-123.855176,16.625,33.296,0.198,0.639
20050108,001428,348646,30.200692,-123.855885,16.626,33.292,0.206,0.656
20050108,001459,348678,30.201810,-123.856570,16.626,33.307,0.198,0.640
20050108,001529,348707,30.202835,-123.857326,16.624,33.313,0.198,0.659
20050108,001559,348737,30.203985,-123.858070,16.627,33.308,0.198,0.639
20050108,001628,348767,30.205070,-123.858790,16.632,33.306,0.198,0.640
20050108,001659,348798,30.206253,-123.859465,16.631,33.308,0.198,0.638
20050108,001729,348828,30.207277,-123.860213,16.632,33.305,0.206,0.681
20050108,001759,348858,30.208357,-123.860920,16.635,33.306,0.198,0.642
20050108,001829,348887,30.209467,-123.861613,16.633,33.309,0.198,0.640
20050108,001900,348919,30.210618,-123.862330,16.633,33.315,0.198,0.653
20050108,001929,348947,30.211593,-123.863035,16.633,33.316,0.198,0.648
20050108,002000,348978,30.212725,-123.863756,16.633,33.320,0.198,0.638
20050108,002030,349008,30.213822,-123.864456,16.635,33.331,0.191,0.622
20050108,002100,349038,30.214902,-123.865185,16.635,33.333,0.191,0.622
20050108,002130,349069,30.215942,-123.865906,16.639,33.338,0.198,0.667
20050108,002200,349099,30.217040,-123.866618,16.638,33.337,0.198,0.638
20050108,002230,349128,30.218162,-123.867330,16.635,33.334,0.198,0.634
20050108,002300,349158,30.219323,-123.868061,16.633,33.334,0.198,0.637
20050108,002330,349188,30.220457,-123.868810,16.637,33.331,0.198,0.630
20050108,002400,349219,30.221548,-123.869526,16.631,33.332,0.198,0.630
20050108,002430,349249,30.222657,-123.870301,16.633,33.331,0.206,0.642
20050108,002459,349277,30.223792,-123.871080,16.638,33.328,0.206,0.639
20050108,002530,349308,30.224947,-123.871801,16.635,33.331,0.206,0.638
20050108,002600,349338,30.226060,-123.872531,16.640,33.328,0.198,0.622
20050108,002630,349368,30.227202,-123.873245,16.645,33.328,0.206,0.647
20050108,002659,349397,30.228237,-123.873971,16.645,33.328,0.206,0.674
20050108,002730,349429,30.229387,-123.874743,16.650,33.327,0.214,0.661
20050108,002800,349458,30.230508,-123.875481,16.660,33.322,0.206,0.646
20050108,002830,349488,30.231630,-123.876246,16.667,33.323,0.206,0.646
20050108,002900,349518,30.232748,-123.876950,16.668,33.322,0.206,0.645
20050108,002931,349549,30.233847,-123.877710,16.674,33.329,0.206,0.664
20050108,003000,349579,30.234975,-123.878398,16.675,33.332,0.198,0.630
20050108,003031,349609,30.236123,-123.879160,16.674,33.341,0.214,0.662
20050108,003100,349638,30.237223,-123.879850,16.677,33.344,0.206,0.646
20050108,003130,349668,30.238330,-123.880593,16.681,33.342,0.206,0.665
20050108,003201,349700,30.239470,-123.881321,16.685,33.342,0.206,0.650
20050108,003230,349729,30.240513,-123.882020,16.685,33.341,0.206,0.652
20050108,003301,349759,30.241683,-123.882775,16.685,33.344,0.198,0.645
20050108,003331,349789,30.242777,-123.883461,16.683,33.348,0.206,0.646
20050108,003401,349820,30.243868,-123.884186,16.686,33.344,0.206,0.644
20050108,003431,349850,30.245008,-123.884946,16.687,33.348,0.214,0.669
20050108,003500,349878,30.246092,-123.885643,16.688,33.346,0.206,0.650
20050108,003530,349909,30.247178,-123.886368,16.687,33.350,0.214,0.652
20050108,003601,349939,30.248350,-123.887100,16.682,33.343,0.222,0.665
20050108,003631,349970,30.249465,-123.887788,16.687,33.352,0.222,0.663
20050108,003700,349998,30.250532,-123.888515,16.688,33.350,0.231,0.677
20050108,003731,350030,30.251703,-123.889273,16.690,33.347,0.256,0.726
20050108,003801,350059,30.252820,-123.889995,16.687,33.350,0.231,0.711
20050108,003830,350089,30.253890,-123.890673,16.689,33.350,0.239,0.706
20050108,003901,350119,30.255082,-123.891401,16.688,33.349,0.239,0.710
20050108,003931,350150,30.256210,-123.892170,16.692,33.349,0.239,0.745
20050108,004001,350180,30.257293,-123.892870,16.691,33.349,0.231,0.745
20050108,004031,350210,30.258428,-123.893595,16.693,33.350,0.222,0.719
20050108,004100,350239,30.259450,-123.894300,16.700,33.349,0.222,0.741
20050108,004131,350269,30.260548,-123.894998,16.714,33.353,0.231,0.731
20050108,004201,350299,30.261665,-123.895675,16.725,33.341,0.222,0.695
20050108,004231,350330,30.262713,-123.896320,16.744,33.393,0.222,0.726
20050108,004301,350360,30.263783,-123.896965,16.758,33.390,0.222,0.674
20050108,004331,350389,30.264873,-123.897630,16.776,33.402,0.239,0.756
20050108,004400,350419,30.265930,-123.898295,16.790,33.412,0.222,0.717
20050108,004431,350449,30.267093,-123.899016,16.801,33.419,0.214,0.678
20050108,004501,350480,30.268222,-123.899733,16.819,33.421,0.214,0.701
20050108,004531,350510,30.269358,-123.900473,16.826,33.438,0.214,0.728
20050108,004601,350540,30.270513,-123.901173,16.825,33.448,0.222,0.698
20050108,004631,350569,30.271620,-123.901913,16.819,33.460,0.214,0.717
20050108,004702,350601,30.272768,-123.902671,16.809,33.468,0.214,0.711
20050108,004731,350629,30.273868,-123.903363,16.806,33.469,0.231,0.721
20050108,004801,350660,30.274975,-123.904051,16.807,33.464,0.231,0.764
20050108,004831,350690,30.276063,-123.904788,16.823,33.450,0.222,0.762
20050108,004901,350719,30.277190,-123.905498,16.833,33.448,0.214,0.697
20050108,004931,350749,30.278272,-123.906200,16.836,33.455,0.231,0.762
20050108,005001,350779,30.279330,-123.906920,16.839,33.460,0.214,0.716
20050108,005032,350810,30.280437,-123.907588,16.848,33.464,0.222,0.706
20050108,005102,350840,30.281522,-123.908278,16.853,33.464,0.231,0.740
20050108,005132,350870,30.282627,-123.908981,16.853,33.464,0.231,0.744
20050108,005202,350901,30.283730,-123.909703,16.852,33.469,0.222,0.735
20050108,005231,350929,30.284802,-123.910321,16.857,33.471,0.222,0.725
20050108,005302,350961,30.285927,-123.911081,16.857,33.476,0.231,0.725
20050108,005332,350990,30.286953,-123.911735,16.859,33.477,0.231,0.720
20050108,005402,351020,30.288030,-123.912391,16.859,33.476,0.222,0.721
20050108,005433,351051,30.289132,-123.913061,16.854,33.477,0.222,0.706
20050108,005502,351081,30.290212,-123.913765,16.855,33.478,0.222,0.708
20050108,005532,351111,30.291330,-123.914478,16.858,33.476,0.231,0.747
20050108,005602,351140,30.292465,-123.915190,16.859,33.476,0.231,0.740
20050108,005632,351170,30.293590,-123.915858,16.857,33.477,0.231,0.730
20050108,005702,351200,30.294687,-123.916585,16.859,33.478,0.222,0.727
20050108,005732,351231,30.295817,-123.917228,16.861,33.474,0.222,0.710
20050108,005803,351261,30.296883,-123.917958,16.861,33.472,0.239,0.750
20050108,005833,351291,30.297993,-123.918646,16.860,33.476,0.231,0.723
20050108,005902,351320,30.299048,-123.919245,16.858,33.476,0.231,0.719
20050108,005933,351352,30.300102,-123.919911,16.857,33.477,0.231,0.725
20050108,010003,351382,30.301198,-123.920550,16.857,33.471,0.222,0.702
20050108,010033,351411,30.302275,-123.921283,16.859,33.476,0.231,0.722
20050108,010102,351441,30.303332,-123.921896,16.861,33.482,0.231,0.704
20050108,010133,351471,30.304475,-123.922578,16.863,33.474,0.222,0.692
20050108,010203,351502,30.305603,-123.923251,16.861,33.476,0.239,0.711
20050108,010233,351532,30.306735,-123.923946,16.864,33.476,0.231,0.687
20050108,010303,351561,30.307873,-123.924643,16.867,33.472,0.222,0.670
20050108,010333,351591,30.308972,-123.925320,16.868,33.471,0.231,0.678
20050108,010403,351621,30.310068,-123.925978,16.868,33.474,0.222,0.659
20050108,010433,351652,30.311167,-123.926655,16.868,33.476,0.231,0.669
20050108,010503,351682,30.312265,-123.927336,16.868,33.476,0.222,0.648
20050108,010533,351712,30.313380,-123.928065,16.867,33.475,0.231,0.662
20050108,010604,351743,30.314540,-123.928740,16.864,33.477,0.231,0.659
20050108,010633,351771,30.315640,-123.929383,16.861,33.478,0.256,0.698
20050108,010704,351802,30.316687,-123.930115,16.860,33.477,0.239,0.668
20050108,010734,351832,30.317783,-123.930806,16.861,33.471,0.239,0.672
20050108,010804,351862,30.318880,-123.931495,16.861,33.474,0.231,0.662
20050108,010833,351891,30.319972,-123.932146,16.858,33.476,0.239,0.679
20050108,010904,351923,30.321133,-123.932865,16.857,33.474,0.222,0.648
20050108,010934,351953,30.322255,-123.933583,16.855,33.473,0.239,0.673
20050108,011004,351982,30.323358,-123.934270,16.852,33.476,0.247,0.683
20050108,011034,352012,30.324523,-123.934928,16.852,33.470,0.239,0.667
20050108,011104,352042,30.325657,-123.935608,16.850,33.468,0.290,0.759
20050108,011134,352073,30.326787,-123.936338,16.850,33.473,0.239,0.673
20050108,011204,352103,30.327938,-123.937021,16.850,33.471,0.264,0.723
20050108,011234,352133,30.329053,-123.937708,16.849,33.468,0.231,0.660
20050108,011304,352162,30.330187,-123.938416,16.846,33.470,0.239,0.673
20050108,011333,352192,30.331260,-123.939086,16.848,33.469,0.239,0.670
20050108,011404,352222,30.332395,-123.939875,16.831,33.487,0.239,0.668
20050108,011434,352253,30.333498,-123.940565,16.629,33.633,0.231,0.653
20050108,011503,352281,30.334583,-123.941280,16.526,33.676,0.231,0.650
20050108,011534,352312,30.335687,-123.941991,16.400,33.608,0.239,0.663
20050108,011604,352342,30.336765,-123.942731,16.362,33.495,0.239,0.660
20050108,011634,352372,30.337862,-123.943458,16.324,33.412,0.239,0.659
20050108,011704,352403,30.338978,-123.944211,16.275,33.385,0.247,0.673
20050108,011734,352433,30.340068,-123.944916,16.250,33.338,0.256,0.685
20050108,011805,352463,30.341155,-123.945661,16.236,33.300,0.247,0.668
20050108,011834,352492,30.342228,-123.946371,16.227,33.269,0.272,0.708
20050108,011904,352522,30.343325,-123.947083,16.194,33.267,0.264,0.689
20050108,011935,352553,30.344453,-123.947860,16.182,33.261,0.264,0.686
20050108,012004,352583,30.345550,-123.948526,16.154,33.252,0.264,0.685
20050108,012035,352613,30.346705,-123.949296,16.145,33.234,0.256,0.670
20050108,012104,352642,30.347723,-123.950036,16.133,33.219,0.272,0.697
20050108,012134,352672,30.348793,-123.950746,16.124,33.206,0.272,0.697
20050108,012204,352702,30.349925,-123.951446,16.112,33.202,0.256,0.668
20050108,012234,352732,30.351062,-123.952166,16.104,33.192,0.272,0.695
20050108,012304,352763,30.352167,-123.952926,16.099,33.175,0.264,0.680
20050108,012334,352793,30.353280,-123.953601,16.098,33.174,0.264,0.679
20050108,012404,352822,30.354388,-123.954338,16.092,33.174,0.272,0.692
20050108,012434,352852,30.355513,-123.955035,16.089,33.175,0.264,0.677
20050108,012504,352882,30.356637,-123.955770,16.079,33.175,0.281,0.706
20050108,012534,352913,30.357808,-123.956505,16.076,33.167,0.281,0.705
20050108,012604,352943,30.358948,-123.957280,16.072,33.165,0.281,0.705
20050108,012635,352973,30.360055,-123.958001,16.069,33.164,0.272,0.690
20050108,012705,353004,30.361215,-123.958753,16.061,33.164,0.290,0.718
20050108,012734,353032,30.362330,-123.959481,16.054,33.165,0.272,0.689
20050108,012805,353063,30.363547,-123.960238,16.048,33.163,0.290,0.718
20050108,012835,353093,30.364725,-123.960993,16.042,33.160,0.281,0.703
20050108,012905,353123,30.365895,-123.961751,16.037,33.155,0.290,0.717
20050108,012935,353154,30.366953,-123.962460,16.033,32.816,0.281,0.702
20050108,013005,353184,30.368132,-123.963220,16.029,33.147,0.281,0.702
20050108,013035,353214,30.369273,-123.963956,16.025,33.147,0.290,0.716
20050108,013105,353243,30.370387,-123.964730,16.026,33.141,0.290,0.716
20050108,013135,353273,30.371567,-123.965441,16.023,33.139,0.299,0.730
20050108,013205,353303,30.372595,-123.966091,16.017,33.141,0.290,0.715
20050108,013235,353334,30.373728,-123.966846,16.019,33.138,0.290,0.715
20050108,013305,353364,30.374880,-123.967523,16.017,33.136,0.281,0.700
20050108,013335,353394,30.376058,-123.968276,16.011,33.137,0.281,0.700
20050108,013405,353423,30.377272,-123.968988,16.009,33.135,0.272,0.686
20050108,013435,353453,30.378428,-123.969670,16.007,33.136,0.281,0.700
20050108,013506,353484,30.379585,-123.970413,16.009,33.129,0.290,0.714
20050108,013535,353514,30.380750,-123.971158,16.009,33.124,0.264,0.671
20050108,013605,353544,30.381898,-123.971861,16.011,33.129,0.264,0.671
20050108,013635,353573,30.383037,-123.972550,16.011,33.121,0.264,0.670
20050108,013705,353603,30.384193,-123.973248,16.016,33.127,0.264,0.670
20050108,013736,353635,30.385407,-123.973960,16.016,33.125,0.264,0.670
20050108,013805,353664,30.386488,-123.974590,16.019,33.127,0.256,0.657
20050108,013835,353694,30.387640,-123.975293,16.021,33.125,0.256,0.656
20050108,013906,353724,30.388838,-123.976065,16.026,33.120,0.256,0.656
20050108,013935,353753,30.389963,-123.976738,16.033,33.124,0.247,0.642
20050108,014005,353783,30.391080,-123.977378,16.038,33.124,0.247,0.642
20050108,014036,353814,30.392250,-123.978125,16.041,33.125,0.256,0.656
20050108,014105,353844,30.393178,-123.978838,16.047,33.126,0.239,0.628
20050108,014136,353874,30.394395,-123.979558,16.062,33.120,0.239,0.628
20050108,014206,353905,30.395500,-123.980216,16.089,33.110,0.239,0.628
20050108,014236,353935,30.396692,-123.980945,16.118,33.103,0.239,0.628
20050108,014305,353963,30.397840,-123.981623,16.130,33.117,0.231,0.613
20050108,014336,353994,30.399050,-123.982360,16.143,33.136,0.239,0.627
20050108,014406,354024,30.400235,-123.983090,16.174,33.127,0.231,0.613
20050108,014436,354054,30.401422,-123.983783,16.205,33.121,0.239,0.627
20050108,014505,354083,30.402565,-123.984521,16.236,33.119,0.231,0.613
20050108,014536,354115,30.403733,-123.985226,16.239,33.155,0.239,0.627
20050108,014606,354145,30.404865,-123.985910,16.245,33.185,0.247,0.641
20050108,014636,354174,30.405990,-123.986536,16.265,33.187,0.239,0.627
20050108,014707,354206,30.407157,-123.987176,16.278,33.193,0.247,0.641
20050108,014736,354234,30.408325,-123.987841,16.295,33.195,0.256,0.655
20050108,014807,354265,30.409570,-123.988528,16.307,33.202,0.231,0.613
20050108,014836,354295,30.410740,-123.989195,16.315,33.211,0.222,0.599
20050108,014906,354324,30.411922,-123.989901,16.333,33.215,0.247,0.641
20050108,014936,354354,30.412937,-123.990511,16.337,33.226,0.231,0.613
20050108,015006,354384,30.413345,-123.990951,16.306,33.260,0.231,0.613
20050108,015036,354415,30.413502,-123.991243,16.293,33.268,0.231,0.613
20050108,015106,354445,30.413567,-123.991478,16.290,33.255,0.231,0.613
20050108,015136,354475,30.413730,-123.991820,16.291,33.242,0.231,0.613
20050108,015206,354504,30.413943,-123.992216,16.288,33.237,0.231,0.613
20050108,015237,354536,30.414193,-123.992666,16.290,33.234,0.222,0.599
20050108,015306,354564,30.414452,-123.993080,16.290,33.232,0.231,0.613
20050108,015336,354595,30.414703,-123.993523,16.289,33.240,0.231,0.613
20050108,015406,354625,30.414945,-123.993976,16.287,33.236,0.231,0.613
20050108,015436,354655,30.415192,-123.994420,16.272,33.247,0.222,0.599
20050108,015506,354684,30.415453,-123.994788,16.271,33.240,0.231,0.613
20050108,015537,354716,30.415652,-123.995141,16.266,33.236,0.231,0.613
20050108,015606,354744,30.415842,-123.995433,16.263,33.231,0.231,0.613
20050108,015636,354775,30.416043,-123.995675,16.261,33.228,0.231,0.613
20050108,015707,354805,30.416208,-123.995923,16.258,33.226,0.231,0.613
20050108,015737,354836,30.416360,-123.996155,16.254,33.225,0.231,0.613
20050108,015807,354866,30.416540,-123.996363,16.254,33.222,0.222,0.599
20050108,015837,354896,30.416688,-123.996536,16.254,33.219,0.222,0.599
20050108,015906,354925,30.416823,-123.996775,16.260,33.218,0.239,0.627
20050108,015937,354955,30.416978,-123.996970,16.258,33.211,0.231,0.613
20050108,020006,354985,30.417053,-123.997120,16.246,33.225,0.222,0.599
20050108,020037,355016,30.417110,-123.997228,16.240,33.249,0.231,0.613
20050108,020107,355046,30.417160,-123.997355,16.243,33.242,0.231,0.613
20050108,020138,355077,30.417186,-123.997420,16.243,33.236,0.231,0.613
20050108,020207,355105,30.417198,-123.997456,16.245,33.229,0.222,0.599
20050108,020237,355135,30.417245,-123.997478,16.245,33.231,0.247,0.641
20050108,020308,355166,30.417285,-123.997561,16.246,33.232,0.231,0.613
20050108,020337,355196,30.417311,-123.997666,16.250,33.228,0.231,0.613
20050108,020407,355226,30.417305,-123.997755,16.250,33.227,0.231,0.613
20050108,020437,355255,30.417320,-123.997798,16.252,33.231,0.239,0.627
20050108,020508,355287,30.417330,-123.997703,16.251,33.229,0.231,0.613
20050108,020538,355317,30.417326,-123.997580,16.249,33.232,0.231,0.613
20050108,020608,355346,30.417375,-123.997491,16.248,33.235,0.231,0.613
20050108,020637,355376,30.417413,-123.997496,16.245,33.231,0.239,0.627
20050108,020708,355406,30.417451,-123.997513,16.244,33.237,0.222,0.599
20050108,020737,355435,30.417485,-123.997563,16.237,33.241,0.239,0.627
20050108,020808,355467,30.417470,-123.997611,16.242,33.236,0.222,0.599
20050108,020838,355496,30.417456,-123.997593,16.242,33.231,0.222,0.599
20050108,020908,355526,30.417470,-123.997631,16.240,33.231,0.222,0.599
20050108,020938,355556,30.417433,-123.997703,16.245,33.229,0.222,0.599
20050108,021008,355587,30.417425,-123.997706,16.245,33.233,0.247,0.641
20050108,021038,355617,30.417396,-123.997645,16.242,33.239,0.231,0.613
20050108,021109,355647,30.417385,-123.997525,16.244,33.235,0.222,0.599
20050108,021138,355676,30.417378,-123.997416,16.246,33.229,0.239,0.627
20050108,021208,355706,30.417410,-123.997393,16.248,33.228,0.222,0.599
20050108,021238,355736,30.417410,-123.997393,16.253,33.235,0.231,0.613
20050108,021309,355767,30.417431,-123.997400,16.256,33.229,0.231,0.613
20050108,021338,355797,30.417415,-123.997440,16.256,33.230,0.222,0.599
20050108,021408,355826,30.417365,-123.997533,16.263,33.225,0.231,0.613
20050108,021438,355856,30.417365,-123.997661,16.266,33.229,0.222,0.599
20050108,021508,355886,30.417340,-123.997788,16.263,33.236,0.222,0.599
20050108,021538,355916,30.417320,-123.997801,16.260,33.247,0.222,0.599
20050108,021608,355947,30.417306,-123.997816,16.266,33.236,0.231,0.613
20050108,021638,355977,30.417258,-123.997870,16.273,33.235,0.231,0.613
20050108,021708,356006,30.417263,-123.997835,16.280,33.230,0.222,0.599
20050108,021738,356036,30.417310,-123.997825,16.283,33.234,0.231,0.613
20050108,021808,356066,30.417328,-123.997840,16.282,33.239,0.222,0.599
20050108,021838,356097,30.417306,-123.997868,16.282,33.243,0.231,0.613
20050108,021908,356127,30.417361,-123.997856,16.280,33.246,0.222,0.599
20050108,021938,356157,30.417385,-123.997890,16.279,33.250,0.231,0.613
20050108,022008,356186,30.417355,-123.997926,16.273,33.260,0.222,0.599
20050108,022038,356216,30.417336,-123.997920,16.264,33.260,0.222,0.599
20050108,022109,356247,30.417350,-123.997886,16.258,33.257,0.231,0.613
20050108,022138,356277,30.417315,-123.997981,16.251,33.253,0.222,0.599
20050108,022209,356307,30.417271,-123.998071,16.251,33.248,0.222,0.599
20050108,022239,356338,30.417226,-123.998123,16.254,33.243,0.231,0.613
20050108,022308,356366,30.417210,-123.998138,16.260,33.234,0.231,0.613
20050108,022338,356396,30.417175,-123.998205,16.263,33.235,0.214,0.585
20050108,022408,356427,30.417135,-123.998260,16.266,33.235,0.222,0.599
20050108,022439,356457,30.417111,-123.998245,16.266,33.236,0.222,0.599
20050108,022509,356487,30.417105,-123.998216,16.267,33.240,0.231,0.613
20050108,022538,356516,30.417056,-123.998245,16.270,33.237,0.222,0.599
20050108,022608,356546,30.417073,-123.998303,16.272,33.237,0.222,0.599
20050108,022639,356578,30.417061,-123.998333,16.275,33.235,0.222,0.599
20050108,022709,356607,30.417040,-123.998375,16.278,33.234,0.222,0.599
20050108,022738,356637,30.417033,-123.998425,16.285,33.236,0.222,0.599
20050108,022808,356667,30.417021,-123.998435,16.280,33.241,0.222,0.599
20050108,022839,356698,30.417051,-123.998476,16.275,33.246,0.222,0.599
20050108,022908,356726,30.417030,-123.998528,16.272,33.251,0.222,0.599
20050108,022939,356757,30.417030,-123.998581,16.266,33.261,0.231,0.613
20050108,023010,356789,30.416985,-123.998556,16.262,33.248,0.222,0.599
20050108,023039,356817,30.417015,-123.998560,16.259,33.242,0.222,0.599
20050108,023110,356848,30.416988,-123.998583,16.258,33.247,0.214,0.585
20050108,023140,356878,30.417000,-123.998545,16.257,33.244,0.222,0.599
20050108,023208,356906,30.417005,-123.998543,16.254,33.245,0.214,0.585
20050108,023239,356937,30.417018,-123.998548,16.253,33.243,0.222,0.599
20050108,023309,356967,30.416988,-123.998563,16.257,33.240,0.222,0.599
20050108,023339,356997,30.417016,-123.998605,16.257,33.236,0.222,0.599
20050108,023409,357028,30.417005,-123.998660,16.258,33.237,0.222,0.599
20050108,023439,357058,30.416991,-123.998746,16.256,33.238,0.214,0.585
20050108,023509,357087,30.416986,-123.998776,16.258,33.236,0.231,0.613
20050108,023539,357117,30.416975,-123.998743,16.258,33.236,0.222,0.599
20050108,023608,357147,30.416931,-123.998715,16.256,33.236,0.222,0.599
20050108,023640,357178,30.416916,-123.998725,16.259,33.236,0.231,0.613
20050108,023710,357208,30.416898,-123.998793,16.258,33.237,0.222,0.599
20050108,023739,357238,30.416865,-123.998826,16.258,33.236,0.222,0.599
20050108,023809,357267,30.416833,-123.998843,16.260,33.236,0.222,0.599
20050108,023839,357297,30.416760,-123.998888,16.263,33.236,0.222,0.599
20050108,023910,357329,30.416743,-123.998920,16.261,33.236,0.231,0.613
20050108,023939,357358,30.416753,-123.998910,16.262,33.238,0.222,0.599
20050108,024009,357388,30.416738,-123.998986,16.265,33.235,0.214,0.585
20050108,024040,357418,30.416736,-123.999031,16.271,33.226,0.222,0.599
20050108,024110,357449,30.416731,-123.999081,16.273,33.234,0.222,0.599
20050108,024140,357479,30.416673,-123.999111,16.275,33.232,0.214,0.585
20050108,024210,357508,30.416733,-123.999091,16.273,33.236,0.222,0.599
20050108,024240,357538,30.416755,-123.999086,16.274,33.246,0.231,0.613
20050108,024310,357568,30.416713,-123.999110,16.275,33.247,0.214,0.585
20050108,024339,357597,30.416713,-123.999180,16.278,33.233,0.222,0.599
20050108,024409,357627,30.416671,-123.999280,16.280,33.236,0.222,0.599
20050108,024440,357659,30.416671,-123.999408,16.277,33.240,0.214,0.585
20050108,024510,357688,30.416645,-123.999513,16.274,33.243,0.214,0.585
20050108,024540,357718,30.416628,-123.999548,16.275,33.243,0.214,0.585
20050108,024610,357748,30.416602,-123.999535,16.273,33.243,0.222,0.599
20050108,024640,357779,30.416612,-123.999521,16.263,33.249,0.222,0.599